Tracking 19795 objects as of 19-Jul-2019
HD Live streaming from Space Station
objects crossing your sky now

COSMOS 1275 DEB

Track COSMOS 1275 DEB now!
10-day predictions


NORAD ID: 42222
Int'l Code: 1981-053UN
Perigee: 852.1 km
Apogee: 955.3 km
Inclination: 83.0 °
Period: 102.9 minutes
Semi major axis: 7274 km
RCS: Unknown
Launch date: June 4, 1981
Source: Commonwealth of Independent States (former USSR) (CIS)
Launch site: PLESETSK MISSILE AND SPACE COMPLEX (PKMTR)

Note: This is SATELLITE DEBRIS
aabbcc
Your satellite tracking list
Your tracking list is empty




NASA's NSSDC Master Catalog

Two Line Element Set (TLE):
1 42222U 81053UN  19162.78056752  .00000674  00000-0  44346-3 0  9999
2 42222  82.9863 339.8670 0070933 120.3372 240.4839 13.99203992841073
Source of the keplerian elements: AFSPC